SCP
0 0 0 0 0 0 0 0 0 0 0 0 0 0 0 0 0 0 0 0 0 0 0 0 0 0 0 0 0 0 0 0 0 0 0 0 0 0 0 0 0 0 0 0
0 0 0 0 0 0 0 0 0 0 0 0 0 0 0 0 0 0 0 0 0 0 0 0 0 0 0 0 0 0 0 0 0 0 0 0 0 0 0 0 0 0 0 0
0 0 0 0 0 0 0 0 0 0 0 0 0 0 0 0 0 0 0 0 0 0 0 0 0 0 0 0 0 0 0 0 0 0 0 0 0 0 0 0 0 0 0 0
0 0 0 0 0 0 0 0 0 0 0 0 0 0 0 0 0 0 0 0 0 0 0 0 0 0 0 0 0 0 0 0 0 0 0 0 0 0 0 0 0 0 0 0
0 0 0 0 0 0 0 0 0 0 0 0 0 0 0 0 0 0 0 0 0 0 0 0 0 0 0 0 0 0 0 0 0 0 0 0 0 0 0 0 0 0 0 0
0 0 0 0 0 0 0 0 0 0 0 0 0 0 0 0 0 0 0 0 0 0 0 0 0 0 0 0 0 0 0 0 0 0 0 0 0 0 0 0 0 0 0 0
0 0 0 0 0 0 0 0 0 0 0 0 0 0 0 0 0 0 0 0 0 0 0 0 0 -0 -0 0 0 0 0 0 0 0 0 0 0 0 0 0 0 0 0 0
0 0 0 0 0 0 0 0 0 0 0 0 0 0 0 0 0 0 0 0 0 0 0 -0 0 -0 -0 -0 -0 0 0 0 0 0 0 0 0 0 0 0 0 0 0 0
0 0 0 0 0 0 0 0 0 0 0 0 0 0 0 0 0 0 0 0 0 -0 -0 -0 0 -0 -0 -0 -0 -0 0 0 0 0 0 0 0 0 0 0 0 0 0 0
0 0 0 0 0 0 0 0 0 0 0 0 0 0 0 0 0 0 0 0 -0 -0 -0 0 -0 -0 -0 -0 -0 -0 0 0 0 0 0 0 0 0 0 0 0 0 0 0
0 0 0 0 0 0 0 0 0 0 0 0 0 0 0 0 0 0 0 0 -0 -0 -0 0 -0 -0 -0 0 -0 -0 -0 0 0 0 0 0 0 0 0 0 0 0 0 0
0 0 0 0 0 0 0 0 0 0 0 0 0 0 0 0 0 0 0 0 -0 -0 -0 -0 -0 0 -0 0 -0 -0 0 0 0 0 0 0 0 0 0 0 0 0 0 0
0 0 0 0 0 0 0 0 0 0 0 0 0 0 0 0 0 0 0 -0 -0 0 -0 -0 -0 -0 -0 0 -0 0 -0 0 0 0 0 0 0 0 0 0 0 0 -0 0
0 0 0 0 0 0 0 0 0 0 0 0 0 0 0 0 0 0 0 -0 -0 -0 -0 -0 -0 -0 -0 -0 -0 -0 -0 -0 0 0 0 0 0 0 0 0 0 0 0 0
0 0 0 0 0 0 0 0 0 0 0 0 0 0 0 0 0 0 -0 -0 -0 -0 -0 -0 -0 -0 -0 -0 -0 -0 -0 0 0 0 0 0 0 0 0 0 -0 0 -0 0
0 0 0 0 0 0 0 0 0 0 0 0 0 0 0 0 0 -0 -0 -0 0 -0 -0 -0 -0 -0 -0 -0 -0 -0 -0 0 0 0 0 0 0 0 0 0 -0 0 0 0
-0 0 0 -0 0 0 0 0 0 0 0 0 0 0 0 0 0 0 0 -0 0 -0 0 0 -0 -0 -0 -0 -0 -0 -0 0 0 0 0 0 0 0 0 0 0 0 0 0
0 0 -0 -0 0 0 0 0 0 0 0 0 0 0 0 0 0 0 -0 0 0 -0 -0 -0 -0 0 0 -0 0 -0 0 0 0 0 0 0 0 0 0 0 -0 -0 0 0
-0 -0 -0 -0 0 0 0 0 0 0 0 0 0 0 0 0 -0 -0 0 0 -0 -0 -0 -0 -0 0 0 0 0 -0 -0 0 0 0 0 0 0 0 0 0 -0 -0 -0 0
-0 -0 -0 -0 0 0 -0 -0 -0 -0 0 0 -0 -0 -0 -0 -0 0 0 0 0 -0 0 -0 0 0 0 0 0 -0 -0 -0 0 0 0 0 0 0 0 0 -0 -0 -0 0
-0 -0 -0 -0 -0 -0 -0 -0 -0 -0 -0 -0 -0 -0 -0 -0 -0 0 0 0 -0 -0 0 0 0 -0 -0 0 -0 -0 -0 -0 0 0 0 0 0 0 0 0 0 0 0 0
-0 -0 -0 -0 -0 -0 -0 -0 -0 -0 -0 -0 -0 -0 -0 -0 -0 0 0 0 0 0 0 0 0 0 0 0 0 0 0 0 0 0 0 0 0 0 0 0 0 -0 0 0
-0 -0 -0 -0 -0 -0 -0 -0 -0 -0 -0 -0 -0 0 -0 -0 0 0 0 0 0 0 0 0 0 0 0 0 0 0 0 0 0 0 -0 -0 0 0 0 0 0 -0 0 0
-0 -0 -0 -0 -0 -0 -0 -0 -0 -0 -0 -0 0 0 0 0 -0 0 -0 -0 0 0 0 0 0 0 0 -0 -0 0 0 0 0 -0 -0 -0 -0 -0 0 -0 -0 -0 -0 -0
-0 -0 -0 -0 -0 -0 -0 -0 -0 -0 -0 -0 -0 -0 -0 -0 -0 -0 -0 -0 -0 -0 -0 -0 -0 0 -0 -0 -0 -0 -0 -0 -0 0 -0 -0 0 -0 -0 -0 -0 -0 -0 -0
-0 -0 -0 -0 -0 -0 -0 -0 -0 -0 -0 -0 -0 0 0 0 0 0 0 -0 -0 -0 -0 -0 -0 -0 -0 -0 -0 -0 -0 -0 0 0 0 0 -0 0 0 0 -0 -0 0 0
-0 -0 -0 -0 -0 -0 -0 -0 -0 -0 0 0 0 0 0 0 0 0 -0 -0 -0 -0 -0 -0 -0 -0 -0 -0 -0 -0 -0 -0 0 0 0 0 0 0 0 0 0 0 0 0
Wind_Speed_500mb
19 23 7 5 13 13 15 14 14 12 15 14 13 17 23 23 23 23 17 10 0 8 15 25 36 43 50 56 60 63 68 71 68 62 58 58 54 52 44 38 42 49 58 58
7 4 2 7 12 16 20 18 17 17 24 12 6 14 27 28 25 21 10 3 10 18 28 37 47 55 59 61 64 64 63 63 58 51 52 52 51 46 39 47 55 60 61 57
7 3 1 16 26 29 25 22 24 28 27 13 12 18 24 22 15 12 9 13 21 32 40 48 52 55 60 63 63 60 58 54 48 49 51 49 42 40 46 53 59 61 57 61
6 8 8 7 9 12 12 16 19 22 23 15 12 20 20 17 11 10 12 19 29 38 45 49 52 55 58 58 58 57 53 47 47 48 50 40 42 48 54 57 54 61 65 75
6 10 13 1 3 4 8 7 5 12 10 21 33 31 19 11 6 9 21 30 36 40 44 50 52 52 54 57 56 51 46 45 46 48 43 42 48 54 58 59 64 64 61 76
7 6 7 7 6 4 5 6 10 19 23 28 24 11 7 7 7 17 24 28 32 37 40 40 42 46 49 51 48 46 48 47 47 45 42 45 49 58 68 62 71 69 71 64
5 6 6 4 6 5 7 6 18 17 21 13 7 11 14 5 12 21 24 29 34 35 36 38 42 46 49 50 49 48 46 46 48 41 42 43 51 63 68 64 72 62 71 64
7 7 8 1 3 6 7 16 23 25 21 26 23 13 9 11 16 21 27 34 38 38 37 40 46 50 53 53 51 47 45 46 44 39 40 40 52 60 67 62 67 69 67 64
10 4 3 5 3 7 13 27 24 29 25 21 13 9 9 11 17 23 29 35 39 42 46 47 49 49 52 52 49 48 47 46 45 43 40 42 53 59 63 57 58 67 60 50
9 6 2 2 8 12 23 33 31 20 13 10 12 9 9 11 16 21 28 35 40 48 52 54 51 48 47 49 47 48 47 45 46 45 39 42 51 57 49 50 53 54 54 49
2 7 4 10 11 23 33 32 21 21 19 16 14 13 12 16 21 23 28 33 35 50 55 56 51 49 48 48 47 48 46 44 41 39 40 49 56 52 46 38 41 47 49 35
2 10 7 5 26 29 32 27 28 21 19 17 15 13 16 20 23 25 30 32 36 50 58 58 52 48 49 46 44 45 45 39 38 40 45 49 52 56 34 28 35 34 36 35
3 4 10 10 27 26 32 34 25 21 19 19 19 19 24 27 25 25 30 33 36 41 55 59 57 53 50 48 47 43 40 38 39 40 43 46 43 44 44 28 33 33 29 32
16 23 18 27 20 30 34 33 25 24 25 24 20 21 29 30 26 30 35 35 38 44 47 49 59 58 53 53 48 43 39 36 38 38 37 38 40 38 35 29 41 30 29 34
21 13 15 25 37 36 35 31 25 24 20 17 18 23 29 33 32 33 35 38 40 47 53 53 55 61 61 56 50 47 43 41 40 36 32 32 32 32 34 32 33 28 25 23
15 17 25 34 37 38 33 24 22 21 16 13 13 21 27 31 32 33 36 41 47 53 55 58 58 58 58 59 55 51 46 40 38 36 35 33 33 38 36 30 26 21 19 13
34 26 36 40 39 31 24 18 19 20 19 16 13 17 23 29 32 37 39 40 43 48 52 56 59 58 59 60 60 55 52 48 42 39 39 36 38 39 39 36 31 22 19 23
7 20 24 38 36 30 20 19 21 21 18 16 14 15 24 32 39 39 42 44 45 47 50 53 56 56 56 57 60 61 57 54 50 45 42 37 37 43 45 40 41 37 37 30
21 36 43 38 28 26 25 23 21 20 18 14 12 16 24 32 37 40 45 51 56 58 57 53 52 54 56 56 57 59 63 61 58 55 48 41 35 35 35 35 39 38 43 43
39 43 34 36 28 23 27 24 24 22 18 14 13 14 19 27 34 40 46 55 57 56 55 54 52 51 53 54 56 55 58 64 68 62 58 49 41 34 32 28 32 33 34 33
42 44 39 34 33 33 30 28 26 25 20 16 13 11 13 20 30 38 45 52 55 55 53 54 56 54 50 50 53 55 56 56 61 66 65 59 51 44 39 30 24 23 25 24
43 39 39 43 43 40 34 31 29 28 24 19 15 12 10 15 24 32 41 47 51 53 54 56 56 53 48 48 49 52 54 56 56 56 60 64 61 55 47 42 34 27 22 19
38 43 44 40 37 35 30 25 24 24 24 23 21 19 16 14 19 25 31 43 46 49 50 53 52 51 48 47 48 49 51 54 56 57 55 54 55 57 54 49 43 35 27 24
42 42 41 34 29 25 24 21 18 19 22 24 25 24 23 16 20 25 29 36 42 46 48 50 50 50 50 48 48 49 50 52 52 52 53 52 51 49 51 51 50 42 34 27
43 42 38 33 27 23 22 20 15 17 20 22 22 24 25 26 22 24 28 35 42 46 47 50 51 51 49 49 49 48 51 50 51 50 49 51 51 50 48 46 45 45 44 38
34 33 30 26 23 20 18 19 15 15 14 17 18 21 24 26 26 25 30 36 40 45 47 47 50 52 51 50 48 46 48 50 51 50 50 49 48 48 48 45 44 42 39 38
30 29 28 25 20 17 13 15 14 12 10 12 14 18 22 27 29 30 33 36 40 42 44 43 43 47 47 49 50 48 47 49 52 53 51 50 49 49 49 46 44 43 43 40
Wind_Direction_500mb
196 200 188 160 178 173 200 223 226 255 219 224 204 193 182 164 167 154 150 142 89 324 319 317 316 315 314 314 312 311 311 310 308 305 304 303 304 304 298 295 297 297 298 298
131 109 207 224 204 212 225 234 248 245 252 260 167 162 158 166 173 153 136 48 342 330 322 321 320 318 317 314 312 312 310 309 309 306 304 305 306 302 301 305 303 301 301 296
201 51 296 264 244 235 234 231 243 251 258 176 164 178 167 155 147 111 54 351 336 328 325 322 320 317 313 310 311 310 309 308 306 309 309 307 305 307 306 305 310 306 300 299
124 139 222 53 305 279 261 255 240 254 251 234 212 140 121 109 93 46 3 337 327 323 319 317 314 312 309 309 309 311 310 306 307 309 306 308 309 307 310 311 304 307 306 310
175 200 322 123 83 133 185 182 267 258 159 127 133 125 98 87 52 351 331 323 320 320 318 317 317 315 313 312 311 312 309 305 307 308 305 306 307 315 313 311 311 311 309 311
159 193 216 108 39 346 216 233 116 138 131 130 147 179 115 138 309 324 327 327 323 320 321 320 321 321 317 316 311 310 311 307 307 304 301 306 316 322 318 313 318 319 318 311
152 227 265 276 297 292 209 69 135 129 121 110 90 68 117 47 337 337 338 339 335 332 327 327 326 326 323 320 317 314 311 311 308 302 303 317 326 317 316 313 316 318 321 314
162 196 254 89 224 235 80 110 126 117 107 99 103 97 47 355 350 351 350 349 345 339 335 334 335 332 328 324 319 316 312 315 308 301 311 316 312 318 319 318 317 317 321 325
185 173 15 327 355 101 123 127 112 105 99 98 93 66 19 9 3 359 357 356 352 346 342 343 341 337 328 326 322 318 316 316 314 307 313 307 319 320 322 324 326 322 323 322
162 113 339 351 92 118 128 124 118 99 99 113 107 77 55 19 0 358 358 358 357 355 350 348 343 338 334 332 327 320 316 317 316 314 308 310 316 325 325 328 327 332 329 322
219 218 224 195 143 133 130 132 120 116 107 96 89 79 38 4 354 350 351 352 355 358 355 353 347 344 342 339 335 331 325 320 323 319 317 313 317 321 327 329 327 328 334 327
134 166 167 89 161 148 140 129 124 114 102 90 78 58 26 10 7 8 3 360 358 3 359 359 356 352 350 347 344 338 336 335 330 328 325 324 324 326 331 337 334 333 335 333
157 165 164 122 150 157 145 139 124 111 102 99 84 58 31 20 19 17 10 9 0 6 2 360 2 1 355 355 355 350 344 340 336 335 331 333 334 334 329 343 343 340 338 334
205 134 115 153 148 148 150 137 124 111 105 95 78 50 31 27 30 23 17 14 6 14 9 4 4 7 2 3 1 358 353 347 342 340 339 338 338 346 339 331 340 340 335 340
149 129 128 158 146 143 146 135 124 122 117 99 67 46 34 32 33 28 23 22 17 22 15 11 10 8 9 6 6 5 2 358 353 350 356 353 355 0 358 352 347 347 341 343
136 149 135 140 141 139 138 132 130 134 125 114 89 47 38 37 36 33 29 26 22 22 17 16 14 11 11 12 13 12 11 9 5 7 10 10 18 5 357 349 352 1 3 18
120 118 129 134 137 133 125 126 134 135 127 118 105 57 44 42 40 37 34 31 28 26 20 17 16 13 15 19 19 17 18 18 20 24 27 33 30 31 30 29 26 37 57 66
229 166 149 153 138 140 132 128 132 131 127 120 107 66 50 43 39 35 34 32 32 28 23 22 18 16 18 21 25 24 26 28 28 29 32 42 46 50 48 52 60 60 54 65
117 132 134 135 141 136 129 127 130 134 126 118 117 75 57 49 40 36 35 32 29 25 21 19 18 18 21 22 25 29 28 33 36 36 36 43 50 55 58 52 58 62 60 60
129 133 136 131 126 129 128 124 127 123 115 108 115 89 59 47 38 36 36 36 30 22 19 18 17 18 21 23 26 28 31 32 36 39 38 39 45 45 42 44 42 48 52 59
134 133 129 126 123 121 114 111 112 108 104 98 100 88 59 42 32 30 32 29 23 17 17 18 18 17 19 21 26 28 29 31 34 36 39 39 37 38 40 35 33 29 32 49
134 134 134 130 127 119 111 106 100 93 88 83 81 75 56 41 30 25 25 23 15 12 16 18 16 14 15 22 25 27 29 30 31 32 34 38 38 36 32 31 31 26 22 20
139 139 138 133 130 126 120 111 97 84 75 71 71 66 57 41 28 24 19 14 10 11 15 16 14 14 17 20 23 25 26 27 28 30 31 31 34 36 35 31 27 21 16 15
138 136 135 136 140 143 139 131 109 87 73 67 65 61 53 44 24 17 10 4 7 10 13 14 15 16 20 20 18 21 23 25 25 25 27 29 26 27 29 31 31 25 17 10
133 134 134 134 137 146 153 147 127 97 75 65 59 53 43 35 29 13 4 2 5 9 11 13 15 18 20 20 18 15 18 20 20 20 23 22 23 22 21 20 21 21 21 16
142 141 140 137 135 132 145 155 142 112 78 60 57 46 33 26 21 14 6 5 5 8 11 12 14 17 19 19 17 14 11 13 14 15 14 15 17 17 16 15 14 13 9 13
145 152 152 145 135 125 137 166 156 127 92 65 52 40 25 18 14 9 7 5 7 8 10 13 13 15 17 16 15 13 10 11 10 8 9 9 9 7 8 9 8 5 3 1
Wind_Speed_850mb
19 23 7 5 13 13 15 14 14 12 15 14 13 17 23 23 23 23 17 10 0 8 15 25 36 43 50 56 60 63 68 71 68 62 58 58 54 52 44 38 42 49 58 58
7 4 2 7 12 16 20 18 17 17 24 12 6 14 27 28 25 21 10 3 10 18 28 37 47 55 59 61 64 64 63 63 58 51 52 52 51 46 39 47 55 60 61 57
7 3 1 16 26 29 25 22 24 28 27 13 12 18 24 22 15 12 9 13 21 32 40 48 52 55 60 63 63 60 58 54 48 49 51 49 42 40 46 53 59 61 57 61
6 8 8 7 9 12 12 16 19 22 23 15 12 20 20 17 11 10 12 19 29 38 45 49 52 55 58 58 58 57 53 47 47 48 50 40 42 48 54 57 54 61 65 75
6 10 13 1 3 4 8 7 5 12 10 21 33 31 19 11 6 9 21 30 36 40 44 50 52 52 54 57 56 51 46 45 46 48 43 42 48 54 58 59 64 64 61 76
7 6 7 7 6 4 5 6 10 19 23 28 24 11 7 7 7 17 24 28 32 37 40 40 42 46 49 51 48 46 48 47 47 45 42 45 49 58 68 62 71 69 71 64
5 6 6 4 6 5 7 6 18 17 21 13 7 11 14 5 12 21 24 29 34 35 36 38 42 46 49 50 49 48 46 46 48 41 42 43 51 63 68 64 72 62 71 64
7 7 8 1 3 6 7 16 23 25 21 26 23 13 9 11 16 21 27 34 38 38 37 40 46 50 53 53 51 47 45 46 44 39 40 40 52 60 67 62 67 69 67 64
10 4 3 5 3 7 13 27 24 29 25 21 13 9 9 11 17 23 29 35 39 42 46 47 49 49 52 52 49 48 47 46 45 43 40 42 53 59 63 57 58 67 60 50
9 6 2 2 8 12 23 33 31 20 13 10 12 9 9 11 16 21 28 35 40 48 52 54 51 48 47 49 47 48 47 45 46 45 39 42 51 57 49 50 53 54 54 49
2 7 4 10 11 23 33 32 21 21 19 16 14 13 12 16 21 23 28 33 35 50 55 56 51 49 48 48 47 48 46 44 41 39 40 49 56 52 46 38 41 47 49 35
2 10 7 5 26 29 32 27 28 21 19 17 15 13 16 20 23 25 30 32 36 50 58 58 52 48 49 46 44 45 45 39 38 40 45 49 52 56 34 28 35 34 36 35
3 4 10 10 27 26 32 34 25 21 19 19 19 19 24 27 25 25 30 33 36 41 55 59 57 53 50 48 47 43 40 38 39 40 43 46 43 44 44 28 33 33 29 32
16 23 18 27 20 30 34 33 25 24 25 24 20 21 29 30 26 30 35 35 38 44 47 49 59 58 53 53 48 43 39 36 38 38 37 38 40 38 35 29 41 30 29 34
21 13 15 25 37 36 35 31 25 24 20 17 18 23 29 33 32 33 35 38 40 47 53 53 55 61 61 56 50 47 43 41 40 36 32 32 32 32 34 32 33 28 25 23
15 17 25 34 37 38 33 24 22 21 16 13 13 21 27 31 32 33 36 41 47 53 55 58 58 58 58 59 55 51 46 40 38 36 35 33 33 38 36 30 26 21 19 13
34 26 36 40 39 31 24 18 19 20 19 16 13 17 23 29 32 37 39 40 43 48 52 56 59 58 59 60 60 55 52 48 42 39 39 36 38 39 39 36 31 22 19 23
7 20 24 38 36 30 20 19 21 21 18 16 14 15 24 32 39 39 42 44 45 47 50 53 56 56 56 57 60 61 57 54 50 45 42 37 37 43 45 40 41 37 37 30
21 36 43 38 28 26 25 23 21 20 18 14 12 16 24 32 37 40 45 51 56 58 57 53 52 54 56 56 57 59 63 61 58 55 48 41 35 35 35 35 39 38 43 43
39 43 34 36 28 23 27 24 24 22 18 14 13 14 19 27 34 40 46 55 57 56 55 54 52 51 53 54 56 55 58 64 68 62 58 49 41 34 32 28 32 33 34 33
42 44 39 34 33 33 30 28 26 25 20 16 13 11 13 20 30 38 45 52 55 55 53 54 56 54 50 50 53 55 56 56 61 66 65 59 51 44 39 30 24 23 25 24
43 39 39 43 43 40 34 31 29 28 24 19 15 12 10 15 24 32 41 47 51 53 54 56 56 53 48 48 49 52 54 56 56 56 60 64 61 55 47 42 34 27 22 19
38 43 44 40 37 35 30 25 24 24 24 23 21 19 16 14 19 25 31 43 46 49 50 53 52 51 48 47 48 49 51 54 56 57 55 54 55 57 54 49 43 35 27 24
42 42 41 34 29 25 24 21 18 19 22 24 25 24 23 16 20 25 29 36 42 46 48 50 50 50 50 48 48 49 50 52 52 52 53 52 51 49 51 51 50 42 34 27
43 42 38 33 27 23 22 20 15 17 20 22 22 24 25 26 22 24 28 35 42 46 47 50 51 51 49 49 49 48 51 50 51 50 49 51 51 50 48 46 45 45 44 38
34 33 30 26 23 20 18 19 15 15 14 17 18 21 24 26 26 25 30 36 40 45 47 47 50 52 51 50 48 46 48 50 51 50 50 49 48 48 48 45 44 42 39 38
30 29 28 25 20 17 13 15 14 12 10 12 14 18 22 27 29 30 33 36 40 42 44 43 43 47 47 49 50 48 47 49 52 53 51 50 49 49 49 46 44 43 43 40
Wind_Direction_850mb
196 200 188 160 178 173 200 223 226 255 219 224 204 193 182 164 167 154 150 142 89 324 319 317 316 315 314 314 312 311 311 310 308 305 304 303 304 304 298 295 297 297 298 298
131 109 207 224 204 212 225 234 248 245 252 260 167 162 158 166 173 153 136 48 342 330 322 321 320 318 317 314 312 312 310 309 309 306 304 305 306 302 301 305 303 301 301 296
201 51 296 264 244 235 234 231 243 251 258 176 164 178 167 155 147 111 54 351 336 328 325 322 320 317 313 310 311 310 309 308 306 309 309 307 305 307 306 305 310 306 300 299
124 139 222 53 305 279 261 255 240 254 251 234 212 140 121 109 93 46 3 337 327 323 319 317 314 312 309 309 309 311 310 306 307 309 306 308 309 307 310 311 304 307 306 310
175 200 322 123 83 133 185 182 267 258 159 127 133 125 98 87 52 351 331 323 320 320 318 317 317 315 313 312 311 312 309 305 307 308 305 306 307 315 313 311 311 311 309 311
159 193 216 108 39 346 216 233 116 138 131 130 147 179 115 138 309 324 327 327 323 320 321 320 321 321 317 316 311 310 311 307 307 304 301 306 316 322 318 313 318 319 318 311
152 227 265 276 297 292 209 69 135 129 121 110 90 68 117 47 337 337 338 339 335 332 327 327 326 326 323 320 317 314 311 311 308 302 303 317 326 317 316 313 316 318 321 314
162 196 254 89 224 235 80 110 126 117 107 99 103 97 47 355 350 351 350 349 345 339 335 334 335 332 328 324 319 316 312 315 308 301 311 316 312 318 319 318 317 317 321 325
185 173 15 327 355 101 123 127 112 105 99 98 93 66 19 9 3 359 357 356 352 346 342 343 341 337 328 326 322 318 316 316 314 307 313 307 319 320 322 324 326 322 323 322
162 113 339 351 92 118 128 124 118 99 99 113 107 77 55 19 0 358 358 358 357 355 350 348 343 338 334 332 327 320 316 317 316 314 308 310 316 325 325 328 327 332 329 322
219 218 224 195 143 133 130 132 120 116 107 96 89 79 38 4 354 350 351 352 355 358 355 353 347 344 342 339 335 331 325 320 323 319 317 313 317 321 327 329 327 328 334 327
134 166 167 89 161 148 140 129 124 114 102 90 78 58 26 10 7 8 3 360 358 3 359 359 356 352 350 347 344 338 336 335 330 328 325 324 324 326 331 337 334 333 335 333
157 165 164 122 150 157 145 139 124 111 102 99 84 58 31 20 19 17 10 9 0 6 2 360 2 1 355 355 355 350 344 340 336 335 331 333 334 334 329 343 343 340 338 334
205 134 115 153 148 148 150 137 124 111 105 95 78 50 31 27 30 23 17 14 6 14 9 4 4 7 2 3 1 358 353 347 342 340 339 338 338 346 339 331 340 340 335 340
149 129 128 158 146 143 146 135 124 122 117 99 67 46 34 32 33 28 23 22 17 22 15 11 10 8 9 6 6 5 2 358 353 350 356 353 355 0 358 352 347 347 341 343
136 149 135 140 141 139 138 132 130 134 125 114 89 47 38 37 36 33 29 26 22 22 17 16 14 11 11 12 13 12 11 9 5 7 10 10 18 5 357 349 352 1 3 18
120 118 129 134 137 133 125 126 134 135 127 118 105 57 44 42 40 37 34 31 28 26 20 17 16 13 15 19 19 17 18 18 20 24 27 33 30 31 30 29 26 37 57 66
229 166 149 153 138 140 132 128 132 131 127 120 107 66 50 43 39 35 34 32 32 28 23 22 18 16 18 21 25 24 26 28 28 29 32 42 46 50 48 52 60 60 54 65
117 132 134 135 141 136 129 127 130 134 126 118 117 75 57 49 40 36 35 32 29 25 21 19 18 18 21 22 25 29 28 33 36 36 36 43 50 55 58 52 58 62 60 60
129 133 136 131 126 129 128 124 127 123 115 108 115 89 59 47 38 36 36 36 30 22 19 18 17 18 21 23 26 28 31 32 36 39 38 39 45 45 42 44 42 48 52 59
134 133 129 126 123 121 114 111 112 108 104 98 100 88 59 42 32 30 32 29 23 17 17 18 18 17 19 21 26 28 29 31 34 36 39 39 37 38 40 35 33 29 32 49
134 134 134 130 127 119 111 106 100 93 88 83 81 75 56 41 30 25 25 23 15 12 16 18 16 14 15 22 25 27 29 30 31 32 34 38 38 36 32 31 31 26 22 20
139 139 138 133 130 126 120 111 97 84 75 71 71 66 57 41 28 24 19 14 10 11 15 16 14 14 17 20 23 25 26 27 28 30 31 31 34 36 35 31 27 21 16 15
138 136 135 136 140 143 139 131 109 87 73 67 65 61 53 44 24 17 10 4 7 10 13 14 15 16 20 20 18 21 23 25 25 25 27 29 26 27 29 31 31 25 17 10
133 134 134 134 137 146 153 147 127 97 75 65 59 53 43 35 29 13 4 2 5 9 11 13 15 18 20 20 18 15 18 20 20 20 23 22 23 22 21 20 21 21 21 16
142 141 140 137 135 132 145 155 142 112 78 60 57 46 33 26 21 14 6 5 5 8 11 12 14 17 19 19 17 14 11 13 14 15 14 15 17 17 16 15 14 13 9 13
145 152 152 145 135 125 137 166 156 127 92 65 52 40 25 18 14 9 7 5 7 8 10 13 13 15 17 16 15 13 10 11 10 8 9 9 9 7 8 9 8 5 3 1